星链-34921(STARLINK-34921)

导读

STARLINK-34921是美国(US)SpaceX星链计划中的一颗卫星,于2025年10月7日发射升空。作为星链星座的组成部分,它旨在为全球提供高速低延迟互联网覆盖,服务偏远地区、移动互联等场景,进一步扩充星链星座规模,推动全球互联网络基础设施建设。

Basic Information
目录编号:
65893
目录名称:
STARLINK-34921
国际标识:
2025-224M
轨道中心:
EARTH
卫星名称:
星链-34921
卫星全名:
星链-34921(STARLINK-34921)
卫星状态:
在轨 (已飞行333 天)
发射日期:
2025-10-07 UTC
国别 :
美国 (US)
星等 :
--
Orbit Information
数据来源 国际轨道数据
星历时间: 2026-09-05T17:33:56+0800
9小时前
查看轨道信息
半长轴: 6840.896km
偏心率: 0.0001345
轨道倾角: 53.159°
近地点辐角 84.300°
升交点赤经 256.255°
平近点角 275.815°
近地点: 461.838km
远地点: 463.68km
周期: 93.849分钟
每日圈数: 15.343813
Detailed Information
固有亮度:
5
最大亮度:
2.5
卫星平台:
Starlink V1.0
覆盖范围:
全球
运营商:
太空探索技术公司
运营商所在国:
美国
制造商(研发单位):
太空探索技术公司
制造商所在国:
美国
使用方式:
暂无
Satellite Introduction
Starlink 计划是 SpaceX 推出的全球卫星互联网项目,通过发射低轨道卫星,为全球尤其是偏远地区提供高速、低延迟的互联网服务。自 2019 年起,Starlink 已部署数千颗卫星,旨在缩小全球数字鸿沟,推动互联网普及。该项目还为军事、航空等行业提供通信支持,带来广泛经济效益。
2D Orbit Map
3D Orbit Map
Orbit Altitude Analysis Chart
Orbit Inclination Analysis Chart
Orbit Comprehensive Analysis Chart
View Comprehensive Chart
Conjunction Data List
Event ID Objects TCA Miss Dist (km) Collision Risk Probability Collision Risk Index (CRI) Action
CDM_260907-115106-494406-589321
2026-09-07T
11:51:51+0000
0.966 km
远距离
2.925156E-5 中风险 0.64
CDM_260906-092506-589306-872421
2026-09-06T
09:25:48+0000
0.965 km
远距离
8.178423E-6 低风险 0.53
CDM_260906-070506-589306-872421
2026-09-06T
07:05:06+0000
1.002 km
极远距离
7.18584E-6 低风险 0.52
CDM_260906-053106-589306-872421
2026-09-06T
05:31:19+0000
1.377 km
极远距离
2.503135E-6 低风险 0.43
CDM_260906-025105-816906-589321
2026-09-06T
02:51:35+0000
2.035 km
极远距离
2.381927E-6 低风险 0.43
CDM_260831-070803-537806-589323
CZ-4 DEB (35378)
2026-08-31T
07:08:55+0000
2.442 km
极远距离
1.405461E-6 低风险 0.38
CDM_260907-102206-460606-589322
2026-09-07T
10:22:06+0000
2.326 km
极远距离
9.118942E-7 极低风险 0.34
CDM_260906-075206-589306-872421
2026-09-06T
07:52:00+0000
2.015 km
极远距离
8.945417E-7 极低风险 0.34
CDM_260907-093506-460606-589321
2026-09-07T
09:35:12+0000
2.572 km
极远距离
7.705281E-7 极低风险 0.33
CDM_260907-062805-390006-589321
2026-09-07T
06:28:45+0000
2.588 km
极远距离
6.008557E-7 极低风险 0.31